DW5164 Weather Reports


Display with metric or nautical units.
time (UTC)temp
F
wind
direction
speed
MPH
gust
MPH
rain 1hr
in
rain 24hr
in
rain mn
in
humidity
%
barometer
mb
20260902210924 75 211 0.0 0.0 0.00 0.00 0.00 79 1015.7
20260902210424 75 211 0.0 0.0 0.00 0.00 0.00 78 1015.7
20260902205925 75 211 0.0 0.0 0.00 0.00 0.00 78 1015.7
20260902205425 75 211 0.0 0.0 0.00 0.00 0.00 78 1015.7
20260902204924 75 211 0.0 2.0 0.00 0.00 0.00 77 1015.7
20260902202924 75 202 2.0 3.0 0.00 0.00 0.00 77 1015.5
20260902202424 76 138 0.0 0.0 0.00 0.00 0.00 77 1015.5
20260902201924 76 138 0.0 0.0 0.00 0.00 0.00 77 1015.5
20260902200932 75 138 0.0 1.0 0.00 0.00 0.00 78 1015.5
20260902195925 75 138 2.0 3.0 0.00 0.00 0.00 76 1015.5
20260902195424 75 138 1.0 3.0 0.00 0.00 0.00 75 1015.5
20260902194926 76 142 1.0 2.0 0.00 0.00 0.00 73 1015.5
20260902193924 77 296 0.0 0.0 0.00 0.00 0.00 72 1015.4
20260902192925 78 296 0.0 0.0 0.00 0.00 0.00 72 1015.4
20260902192424 78 296 0.0 0.0 0.00 0.00 0.00 73 1015.4
20260902191925 78 296 0.0 0.0 0.00 0.00 0.00 73 1015.3
20260902190940 78 296 0.0 0.0 0.00 0.00 0.00 72 1015.2
20260902185925 78 296 0.0 0.0 0.00 0.00 0.00 71 1015.2
20260902184926 78 296 0.0 0.0 0.00 0.00 0.00 72 1015.1
20260902183925 79 296 0.0 0.0 0.00 0.00 0.00 70 1014.9
20260902182927 80 296 0.0 0.0 0.00 0.00 0.00 69 1014.8
20260902182425 80 296 0.0 0.0 0.00 0.00 0.00 68 1014.8
20260902181924 80 296 0.0 0.0 0.00 0.00 0.00 68 1014.7
20260902181424 80 296 0.0 0.0 0.00 0.00 0.00 66 1014.6
20260902180941 81 296 0.0 0.0 0.00 0.00 0.00 66 1014.6
20260902175924 82 296 0.0 0.0 0.00 0.00 0.00 65 1014.5
20260902175426 82 296 0.0 1.0 0.00 0.00 0.00 64 1014.5
20260902174924 83 296 0.0 1.0 0.00 0.00 0.00 62 1014.5
20260902173925 85 296 2.0 2.0 0.00 0.00 0.00 55 1014.4
20260902173424 85 296 1.0 2.0 0.00 0.00 0.00 55 1014.4
20260902172425 86 341 1.0 3.0 0.00 0.00 0.00 55 1014.3
20260902171924 87 301 2.0 3.0 0.00 0.00 0.00 53 1014.2
20260902171426 87 303 2.0 5.0 0.00 0.00 0.00 53 1014.2
20260902170424 87 299 2.0 5.0 0.00 0.00 0.00 53 1014.3
20260902165931 88 280 2.0 3.0 0.00 0.00 0.00 51 1014.3
20260902165424 88 273 2.0 3.0 0.00 0.00 0.00 50 1014.4
20260902164939 88 301 2.0 3.0 0.00 0.00 0.00 49 1014.5
20260902163923 88 300 2.0 3.0 0.00 0.00 0.00 50 1014.4
20260902163431 88 227 2.0 5.0 0.00 0.00 0.00 50 1014.5
20260902162923 88 223 5.0 7.0 0.00 0.00 0.00 49 1014.4
20260902162424 89 194 3.0 5.0 0.00 0.00 0.00 48 1014.4
20260902161424 89 298 5.0 7.0 0.00 0.00 0.00 48 1014.4
20260902160924 89 314 4.0 7.0 0.00 0.00 0.00 49 1014.5
20260902160424 89 305 4.0 5.0 0.00 0.00 0.00 49 1014.5
20260902155928 89 315 2.0 3.0 0.00 0.00 0.00 50 1014.4
20260902155425 89 267 1.0 3.0 0.00 0.00 0.00 49 1014.4
20260902154924 89 307 4.0 6.0 0.00 0.00 0.00 48 1014.5
20260902154423 89 290 5.0 9.0 0.00 0.00 0.00 49 1014.5
20260902153924 89 314 3.0 8.0 0.00 0.00 0.00 48 1014.6
20260902153431 89 286 5.0 8.0 0.00 0.00 0.00 48 1014.6
20260902152923 90 265 5.0 8.0 0.00 0.00 0.00 47 1014.7
20260902151924 90 264 2.0 7.0 0.00 0.00 0.00 49 1014.7
20260902151423 89 348 1.0 7.0 0.00 0.00 0.00 52 1014.8
20260902150926 89 1 2.0 3.0 0.00 0.00 0.00 50 1014.8
20260902145423 90 272 3.0 7.0 0.00 0.00 0.00 49 1014.8
20260902144924 90 281 6.0 9.0 0.00 0.00 0.00 48 1014.9
20260902143925 89 279 6.0 10.0 0.00 0.00 0.00 51 1015.0
20260902143423 90 270 4.0 9.0 0.00 0.00 0.00 51 1015.0
20260902142927 89 236 4.0 7.0 0.00 0.00 0.00 51 1015.1
20260902141923 89 246 1.0 3.0 0.00 0.00 0.00 52 1015.2
20260902141441 90 261 5.0 9.0 0.00 0.00 0.00 52 1015.2
20260902140924 89 236 6.0 9.0 0.00 0.00 0.00 52 1015.2
20260902135926 89 247 6.0 10.0 0.00 0.00 0.00 51 1015.4
20260902135423 90 46 1.0 3.0 0.00 0.00 0.00 53 1015.4
20260902134923 90 293 2.0 3.0 0.00 0.00 0.00 52 1015.4
20260902133924 90 205 3.0 7.0 0.00 0.00 0.00 52 1015.6
20260902133423 89 253 3.0 6.0 0.00 0.00 0.00 53 1015.6
20260902132925 90 211 5.0 8.0 0.00 0.00 0.00 53 1015.7
20260902131424 89 302 1.0 3.0 0.00 0.00 0.00 54 1015.9
20260902130924 89 333 5.0 7.0 0.00 0.00 0.00 55 1015.9
20260902130423 87 136 2.0 6.0 0.00 0.00 0.00 57 1016.0
20260902125923 87 77 3.0 5.0 0.00 0.00 0.00 57 1016.0
20260902124925 87 96 3.0 5.0 0.00 0.00 0.00 59 1016.1
20260902124424 87 126 1.0 5.0 0.00 0.00 0.00 58 1016.2
20260902122924 87 93 5.0 7.0 0.00 0.00 0.00 58 1016.3
20260902122424 87 107 4.0 8.0 0.00 0.00 0.00 59 1016.3
20260902121924 86 33 4.0 10.0 0.00 0.00 0.00 57 1016.4
20260902120925 87 81 4.0 9.0 0.00 0.00 0.00 58 1016.5
20260902120423 87 16 2.0 3.0 0.00 0.00 0.00 58 1016.5
20260902115423 86 78 3.0 6.0 0.00 0.00 0.00 56 1016.7
20260902114423 85 60 2.0 3.0 0.00 0.00 0.00 57 1016.8
20260902113935 85 108 3.0 5.0 0.00 0.00 0.00 60 1016.9
20260902113427 84 78 3.0 6.0 0.00 0.00 0.00 59 1016.9
20260902112925 85 74 3.0 5.0 0.00 0.00 0.00 60 1016.9
20260902112424 84 101 2.0 7.0 0.00 0.00 0.00 59 1017.0
20260902111927 85 133 2.0 7.0 0.00 0.00 0.00 57 1017.0
20260902111440 85 115 5.0 8.0 0.00 0.00 0.00 57 1017.1
20260902105922 85 105 3.0 7.0 0.00 0.00 0.00 57 1017.3
20260902105422 84 103 3.0 5.0 0.00 0.00 0.00 53 1017.4
20260902104922 84 97 2.0 3.0 0.00 0.00 0.00 54 1017.4
20260902104423 84 153 2.0 6.0 0.00 0.00 0.00 53 1017.5
20260902103923 86 92 3.0 9.0 0.00 0.00 0.00 52 1017.5
20260902103423 85 90 2.0 5.0 0.00 0.00 0.00 54 1017.6
20260902102923 85 331 2.0 3.0 0.00 0.00 0.00 50 1017.6
20260902101924 84 94 3.0 7.0 0.00 0.00 0.00 56 1017.7
20260902100923 83 100 3.0 5.0 0.00 0.00 0.00 58 1017.8
20260902095923 83 90 2.0 5.0 0.00 0.00 0.00 59 1017.9
20260902095423 83 114 3.0 5.0 0.00 0.00 0.00 61 1017.9
20260902094923 83 182 2.0 3.0 0.00 0.00 0.00 60 1018.0
20260902094423 83 131 1.0 7.0 0.00 0.00 0.00 62 1018.0
20260902093923 83 110 2.0 3.0 0.00 0.00 0.00 63 1018.0
20260902092923 81 130 1.0 3.0 0.00 0.00 0.00 65 1018.1
20260902091423 82 141 3.0 5.0 0.00 0.00 0.00 64 1018.0
20260902090422 82 161 1.0 3.0 0.00 0.00 0.00 64 1018.0
20260902085923 82 49 2.0 3.0 0.00 0.00 0.00 65 1018.0
20260902085422 81 127 1.0 3.0 0.00 0.00 0.00 65 1018.1
20260902084922 81 164 3.0 8.0 0.00 0.00 0.00 65 1018.1
20260902084422 81 96 1.0 3.0 0.00 0.00 0.00 68 1018.1
20260902083922 81 98 3.0 3.0 0.00 0.00 0.00 67 1018.1
20260902083422 81 132 2.0 5.0 0.00 0.00 0.00 65 1018.1
20260902082430 80 107 2.0 5.0 0.00 0.00 0.00 66 1018.0
20260902081923 81 136 1.0 5.0 0.00 0.00 0.00 66 1018.1
20260902080922 80 58 0.0 3.0 0.00 0.00 0.00 63 1017.9
20260902080423 80 58 2.0 5.0 0.00 0.00 0.00 64 1017.9
20260902075922 80 59 2.0 6.0 0.00 0.00 0.00 64 1017.9
20260902075424 80 62 2.0 3.0 0.00 0.00 0.00 70 1017.9
20260902074926 79 15 1.0 3.0 0.00 0.00 0.00 71 1017.8
20260902073923 79 0 1.0 3.0 0.00 0.00 0.00 74 1017.8
20260902073422 78 22 1.0 3.0 0.00 0.00 0.00 77 1017.7
20260902072922 77 9 1.0 3.0 0.00 0.00 0.00 79 1017.8
20260902072425 77 325 1.0 3.0 0.00 0.00 0.00 79 1017.9
20260902071922 76 289 2.0 3.0 0.00 0.00 0.00 79 1017.8
20260902071422 76 276 1.0 2.0 0.00 0.00 0.00 80 1017.8
20260902070923 75 301 1.0 2.0 0.00 0.00 0.00 80 1017.7
20260902070422 75 301 1.0 3.0 0.00 0.00 0.00 81 1017.7
20260902065922 74 288 0.0 2.0 0.00 0.00 0.00 82 1017.7
20260902065438 74 288 1.0 3.0 0.00 0.00 0.00 82 1017.7
20260902064422 73 300 2.0 3.0 0.00 0.00 0.00 83 1017.6
20260902063923 73 292 1.0 3.0 0.00 0.00 0.00 82 1017.6
20260902063437 72 263 1.0 3.0 0.00 0.00 0.00 83 1017.6
20260902062924 72 273 2.0 3.0 0.00 0.00 0.00 83 1017.6
20260902061424 70 263 0.0 2.0 0.00 0.00 0.00 86 1017.5
20260902060924 70 263 1.0 3.0 0.00 0.00 0.00 86 1017.5
20260902055922 69 262 1.0 3.0 0.00 0.00 0.00 87 1017.4
20260902055422 69 264 2.0 3.0 0.00 0.00 0.00 88 1017.4
20260902054922 68 343 0.0 3.0 0.00 0.00 0.00 88 1017.4
20260902054422 68 343 1.0 2.0 0.00 0.00 0.00 89 1017.4
20260902053923 68 343 1.0 2.0 0.00 0.00 0.00 89 1017.3
20260902053422 68 343 0.0 0.0 0.00 0.00 0.00 90 1017.2
20260902052422 67 343 0.0 0.0 0.00 0.00 0.00 90 1017.1
20260902051922 67 343 0.0 0.0 0.00 0.00 0.00 91 1017.1
20260902051422 66 344 0.0 0.0 0.00 0.00 0.00 91 1017.1
20260902050922 66 258 0.0 0.0 0.00 0.00 0.00 91 1017.1
20260902050422 66 258 0.0 0.0 0.00 0.00 0.00 91 1017.0
20260902045925 66 246 0.0 0.0 0.00 0.00 0.00 91 1016.9
20260902045422 66 213 0.0 0.0 0.00 0.00 0.00 91 1016.9
20260902044922 67 213 0.0 0.0 0.00 0.00 0.00 90 1016.8
20260902043922 67 213 0.0 0.0 0.00 0.00 0.00 90 1016.9
20260902043422 67 213 0.0 0.0 0.00 0.00 0.00 90 1016.9
20260902042922 66 213 0.0 0.0 0.00 0.00 0.00 90 1016.9
20260902042425 66 213 0.0 0.0 0.00 0.00 0.00 90 1016.9
20260902041922 67 213 0.0 0.0 0.00 0.00 0.00 90 1016.9
20260902041421 66 213 0.0 0.0 0.00 0.00 0.00 90 1016.8
20260902040922 66 213 0.0 0.0 0.00 0.00 0.00 89 1016.9
20260902040422 67 213 0.0 0.0 0.00 0.00 0.00 89 1016.9
20260902035923 67 213 0.0 0.0 0.00 0.00 0.00 89 1016.9
20260902035422 67 213 0.0 0.0 0.00 0.00 0.00 89 1016.8
20260902034923 67 213 0.0 0.0 0.00 0.00 0.00 89 1016.8
20260902034421 67 213 0.0 0.0 0.00 0.00 0.00 89 1016.7
20260902033921 67 213 0.0 0.0 0.00 0.00 0.00 89 1016.8
20260902033422 67 213 0.0 0.0 0.00 0.00 0.00 89 1016.8
20260902032924 67 57 0.0 0.0 0.00 0.00 0.00 88 1016.8
20260902032422 68 57 0.0 0.0 0.00 0.00 0.00 88 1016.7
20260902031922 68 57 0.0 0.0 0.00 0.00 0.00 87 1016.8
20260902031422 68 57 0.0 2.0 0.00 0.00 0.00 88 1016.8
20260902030937 68 57 1.0 2.0 0.00 0.00 0.00 88 1016.8
20260902030423 68 57 0.0 0.0 0.00 0.00 0.00 88 1016.7
20260902025929 68 57 0.0 1.0 0.00 0.00 0.00 87 1016.7
20260902025421 68 57 0.0 0.0 0.00 0.00 0.00 87 1016.7
20260902024921 68 57 0.0 0.0 0.00 0.00 0.00 87 1016.7
20260902024422 68 57 0.0 0.0 0.00 0.00 0.00 87 1016.7
20260902023921 69 57 0.0 2.0 0.00 0.00 0.00 87 1016.7
20260902023422 69 57 0.0 0.0 0.00 0.00 0.00 86 1016.7
20260902022925 69 57 0.0 2.0 0.00 0.00 0.00 86 1016.7
20260902022421 69 57 0.0 2.0 0.00 0.00 0.00 86 1016.7
20260902021922 69 57 0.0 1.0 0.00 0.00 0.00 86 1016.7
20260902020922 69 57 0.0 2.0 0.00 0.00 0.00 86 1016.8
20260902020423 68 57 1.0 2.0 0.00 0.00 0.00 86 1016.7
20260902015922 68 57 1.0 2.0 0.00 0.00 0.00 86 1016.7
20260902015421 69 57 1.0 2.0 0.00 0.00 0.00 86 1016.7
20260902014923 69 57 0.0 2.0 0.00 0.00 0.00 86 1016.7
20260902013922 69 57 0.0 0.0 0.00 0.00 0.00 85 1016.7
20260902012921 69 57 0.0 0.0 0.00 0.00 0.00 85 1016.7
20260902012422 69 57 1.0 2.0 0.00 0.00 0.00 85 1016.7
20260902011922 69 57 0.0 2.0 0.00 0.00 0.00 85 1016.7
20260902011422 69 57 0.0 0.0 0.00 0.00 0.00 84 1016.6
20260902010922 70 57 0.0 0.0 0.00 0.00 0.00 83 1016.7
20260902005921 70 57 2.0 3.0 0.00 0.00 0.00 83 1016.6
20260902005428 70 57 1.0 2.0 0.00 0.00 0.00 83 1016.6
20260902004921 70 57 1.0 2.0 0.00 0.00 0.00 83 1016.6
20260902004422 70 57 0.0 0.0 0.00 0.00 0.00 83 1016.6
20260902003424 70 57 1.0 2.0 0.00 0.00 0.00 82 1016.6
20260902002923 70 57 2.0 3.0 0.00 0.00 0.00 82 1016.6
20260902002421 71 57 1.0 3.0 0.00 0.00 0.00 81 1016.5
20260902001922 71 57 0.0 1.0 0.00 0.00 0.00 81 1016.5
20260902000921 71 57 1.0 3.0 0.00 0.00 0.00 81 1016.6
20260902000421 71 57 1.0 2.0 0.00 0.00 0.00 80 1016.7
20260901235420 70 57 3.0 3.0 0.00 0.00 0.00 81 1016.7
20260901234439 71 57 0.0 2.0 0.00 0.00 0.00 80 1016.6
20260901233421 71 59 2.0 3.0 0.00 0.00 0.00 82 1016.6
20260901231921 71 92 1.0 3.0 0.00 0.00 0.00 81 1016.6
20260901231422 71 92 2.0 5.0 0.00 0.00 0.00 81 1016.6
20260901230921 71 92 2.0 3.0 0.00 0.00 0.00 81 1016.5
20260901225420 71 88 2.0 5.0 0.00 0.00 0.00 82 1016.5
20260901224920 71 88 2.0 5.0 0.00 0.00 0.00 82 1016.5
20260901224421 71 80 2.0 5.0 0.00 0.00 0.00 82 1016.5
20260901223921 71 80 2.0 3.0 0.00 0.00 0.00 81 1016.5
20260901223422 72 67 2.0 3.0 0.00 0.00 0.00 80 1016.5
20260901222922 72 62 2.0 3.0 0.00 0.00 0.00 81 1016.6
20260901222422 72 40 2.0 3.0 0.00 0.00 0.00 80 1016.5
20260901221921 72 40 2.0 3.0 0.00 0.00 0.00 80 1016.5
20260901221421 72 38 2.0 3.0 0.00 0.00 0.00 79 1016.5
20260901220921 72 58 3.0 3.0 0.00 0.00 0.00 79 1016.5
20260901220422 72 43 3.0 5.0 0.00 0.00 0.00 79 1016.4
20260901215921 73 44 2.0 3.0 0.00 0.00 0.00 78 1016.4
20260901215436 73 44 3.0 5.0 0.00 0.00 0.00 79 1016.5
20260901214920 73 30 1.0 3.0 0.00 0.00 0.00 79 1016.5
20260901213421 73 71 1.0 3.0 0.00 0.00 0.00 78 1016.4
20260901212925 73 71 1.0 2.0 0.00 0.00 0.00 77 1016.4
20260901212424 73 71 2.0 3.0 0.00 0.00 0.00 78 1016.4
20260901211921 74 96 0.0 0.0 0.00 0.00 0.00 78 1016.4